{"data":{"norad_id":65820,"intl_designator":"2025-220D","name":"HULIANWANG DIGUI-85","alt_names":[],"object_type":"PAYLOAD","status":"ACTIVE","operator":null,"country":"PRC","launch_date":"2025-09-27","launch_site_code":"TAISC","launch_vehicle":null,"mission":null,"orbit_class":"UNKNOWN","rcs_meters":null,"size_class":null,"mass_kg":null,"dimensions":null,"purposes":[],"wikipedia_slug":null,"has_3d_model":false,"image_url":null,"decayed_at":null,"tle_current":{"epoch":"2026-05-25T04:11:48.259104Z","epoch_age_seconds":53808,"freshness":"FRESH","line1":"1 65820U 25220D   26145.17486411  .00000047  00000+0  75515-4 0  9999","line2":"2 65820  86.5005  51.6597 0001443  62.8336 297.2945 13.24405036 31875","mean_motion":13.24405036,"eccentricity":0.0001443,"inclination_deg":86.5005,"raan_deg":51.6597,"arg_perigee_deg":62.8336,"mean_anomaly_deg":297.2945,"bstar":7.5515e-5,"rev_number":3187,"period_min":108.72806738557,"perigee_km":1166.8521421337,"apogee_km":1169.0299402564,"semimajor_km":7546.078041195,"source":"CELESTRAK","updated_at":"2026-05-25T13:38:05.701592Z"}}}